AEROCUBE 12A (43556 NORAD) Tracking and Keplerian Element Data

This shows tracking and keplerian element data for the satellite.

Feedback or suggestion? Click here.




ElementValue
Catalog43556
NameAEROCUBE 12A
Epoch Orbit26955
Epoch Day127.05494303
Epoch Year2023
RAAN16.8345
Inclination51.6203
Eccentricity0.0008208
Argument of Perigee181.088
Mean Anonmoly179.0109
Mean Motion15.89985852
Decay Rate0.00512051
L11 43556U 18046C 23127.05494303 .00512051 11064-3 16747-2 0 9991
L22 43556 51.6203 16.8345 0008208 181.0880 179.0109 15.89985852269557



Live tracking and technical data element details for AEROCUBE 12A (NORAD 43556). AEROCUBE 12A can be tracked NOW for your location showing map with azimuth and elevation plus other details from your city location.







IsCatalogInMostPopularTable: catalog: 43556, numindb: 737
Update: records affected: 1



GetName: 43556 AEROCUBE 12A

Hit Count: updated at: Sat, 17 May 2025 05:40:26 GMT